Find ARSAT-1

NORAD ID: 40272 Int'l Des: 2014-062 Owner: ARSAT Country: AR operational
HEOCIRCULARGSOGEO

Aktuelle Ansicht

3D-Globus wird geladen...

Über ARSAT-1

Beschreibung wird geladen...

Nächste Überflüge

Passes for default location (London). Set your location on the main map for personalized predictions.

Höhenverlauf

Loading altitude history...

Zweizeiliger Elementsatz

1 40272U 14062B 26149.49078123 -.00000249 00000-0 00000+0 0 9999
2 40272 0.0227 25.6105 0001907 38.0835 288.1909 1.00270787 42433
Epoch: 29. Mai 2026 • Age: 20 hours

Aktueller Status

Höhe 35791.0 km
Geschwindigkeit 3.07 km/s
Subsatellitenpunkt -0.03°S, 71.84°W
Startdatum 16. Okt. 2014
Alter 11.6 years
Typ other

Technische Details

Klassifizierung Payload
Masse 2983.00 kg
Trockenmasse 2000.00 kg
Gesamtmasse 2983.00 kg
Länge 3.10 m
Durchmesser 2.20 m
Spannweite 16.30 m
Form Box + 2 panels
Hersteller INVAP
Bus-Typ ARSAT-Bus
Phasenstatus In Orbit
Besitzer/Staat ARSAT/AR

Most Searched